Flag for Finland Weather past 2 weeks in Helsinki, Finland

41 °F

Low clouds.

Feels Like: 34 °F
Forecast: 36 / 42 °F
Wind: 13 mph from South

Location: Helsinki Malmi Airport

Current Time: Nov 25, 2015 at 3:07:08 AM

Latest Report: Nov 25, 2015 at 2:20 AM

Visibility: N/A

Pressure: 29.74 "Hg

Humidity: 93%

Dew point: 39 °F

Location of HelsinkiLocation

Historic Weather in Helsinki — Graph


Helsinki temperature yesterday

Maximum temperature yesterday: 39 °F (at 2:50 PM)
Minimum temperature yesterday: 19 °F (at 12:20 AM)
Average temperature yesterday: 33 °F

Past Weeks' High & Low Weather Summary

High46 °F (Nov 14, 4:50 AM)100% (Nov 10, 5:50 AM)30.01 "Hg (Nov 10, 5:50 AM)
Low19 °F (Nov 24, 12:20 AM)69% (Nov 23, 12:50 PM)29.06 "Hg (Nov 21, 12:20 AM)
Average38 °F92%29.50 "Hg
* Reported Nov 10 5:50 AM — Nov 25 1:20 AM, Helsinki, Weather by CustomWeather, © 2015

Note: Actual official high and low records may vary slightly from our data, if they occured in-between our weather recording intervals... More about our weather records


Helsinki weather history for previous 24 hours

Time TempWeatherWind HumidityBarometerVisibility
1:20 AM
Wed, Nov 25
41 °FLow clouds.13 mph93%29.74 "HgN/A
12:50 AM41 °FLow clouds.14 mph87%29.74 "HgN/A
11:50 PM
Tue, Nov 24
39 °FLight rain. Low clouds.14 mph93%29.74 "Hg4 mi
11:20 PM39 °FLow clouds.12 mph93%29.77 "HgN/A
10:50 PM39 °FSprinkles. Low clouds.12 mph93%29.77 "HgN/A
10:20 PM39 °FLow clouds.13 mph93%29.77 "Hg4 mi
9:50 PM39 °FLow clouds.13 mph93%29.77 "Hg5 mi
9:20 PM39 °FLow clouds.12 mph93%29.77 "HgN/A
8:50 PM39 °FPassing clouds.12 mph93%29.77 "HgN/A
8:20 PM39 °FPassing clouds.10 mph87%29.77 "HgN/A
7:50 PM39 °FPassing clouds.12 mph93%29.80 "HgN/A
7:20 PM39 °FSprinkles. Passing clouds.13 mph93%29.80 "HgN/A
6:50 PM39 °FPassing clouds.9 mph93%29.80 "HgN/A
6:20 PM37 °FLight rain. Passing clouds.2 mph93%29.80 "HgN/A
5:50 PM37 °FLight rain. Partly cloudy.3 mph93%29.80 "HgN/A
5:20 PM37 °FPassing clouds.9 mph93%29.80 "HgN/A
4:50 PM37 °FPassing clouds.12 mph93%29.80 "HgN/A
4:20 PM39 °FPassing clouds.9 mph87%29.83 "HgN/A
3:50 PM39 °FSprinkles. Passing clouds.9 mph87%29.83 "HgN/A
3:20 PM39 °FPartly sunny.8 mph87%29.83 "HgN/A
2:50 PM39 °FSprinkles. Partly sunny.9 mph87%29.83 "HgN/A
2:20 PM37 °FSprinkles. Partly sunny.10 mph93%29.83 "HgN/A
1:50 PM37 °FSprinkles. Partly sunny.7 mph93%29.83 "HgN/A
1:20 PM37 °FPartly sunny.8 mph87%29.83 "HgN/A
12:50 PM37 °FPartly sunny.9 mph87%29.86 "HgN/A
12:20 PM37 °FBroken clouds.8 mph87%29.86 "HgN/A
11:50 AM36 °FPartly sunny.8 mph93%29.86 "HgN/A
11:20 AM36 °FSprinkles. Partly sunny.6 mph93%29.86 "HgN/A
10:50 AM36 °FSprinkles. Partly sunny.5 mph93%29.86 "HgN/A
10:20 AM34 °FPartly sunny.6 mph93%29.86 "HgN/A
9:50 AM34 °FScattered clouds.7 mph93%29.86 "HgN/A
8:50 AM30 °FScattered clouds.3 mph100%29.89 "HgN/A
8:20 AM34 °FPassing clouds.3 mph93%29.89 "HgN/A
7:50 AM34 °FPassing clouds.7 mph93%29.86 "HgN/A
7:20 AM34 °FPassing clouds.5 mph93%29.89 "HgN/A
6:50 AM34 °FPassing clouds.7 mph93%29.89 "HgN/A
6:20 AM34 °FPassing clouds.5 mph93%29.89 "HgN/A
5:50 AM34 °FHeavy rain. Passing clouds.7 mph93%29.89 "Hg1 mi
4:50 AM23 °FSnow flurries. Passing clouds.1 mph93%29.89 "HgN/A
4:20 AM21 °FSnow flurries. Passing clouds.No wind93%29.89 "HgN/A
3:50 AM19 °FClear.1 mph93%29.89 "Hg10 mi
3:20 AM19 °FClear.No wind93%29.89 "Hg10 mi
Weather by CustomWeather, © 2015

See weather overviewHow to use our weather pages